| time (UTC) | temp C | wind direction | speed KPH | gust KPH | rain 1hr cm | rain 24hr cm | rain mn cm | humidity % | barometer mb |
| 20260902014538 | 25 | 149 | 0.0 | 6.4 | 0.00 | 0.00 | 0.00 | 84 | 1017.0 |
| 20260902014039 | 25 | 130 | 0.0 | 4.8 | 0.00 | 0.00 | 0.00 | 85 | 1016.9 |
| 20260902013538 | 25 | 164 | 0.0 | 8.0 | 0.00 | 0.00 | 0.00 | 85 | 1016.8 |
| 20260902013038 | 25 | 152 | 0.0 | 8.0 | 0.00 | 0.00 | 0.00 | 84 | 1016.8 |
| 20260902012537 | 25 | 125 | 0.0 | 4.8 | 0.00 | 0.00 | 0.00 | 84 | 1016.8 |
| 20260902012037 | 26 | 142 | 0.0 | 4.8 | 0.00 | 0.00 | 0.00 | 83 | 1016.7 |
| 20260902011550 | 26 | 165 | 0.0 | 4.8 | 0.00 | 0.00 | 0.00 | 82 | 1016.7 |
| 20260902011039 | 26 | 134 | 0.0 | 4.8 | 0.00 | 0.00 | 0.00 | 82 | 1016.6 |
| 20260902010638 | 26 | 113 | 0.0 | 4.8 | 0.00 | 0.00 | 0.00 | 81 | 1016.7 |
| 20260902010056 | 26 | 143 | 0.0 | 4.8 | 0.00 | 0.00 | 0.00 | 81 | 1016.7 |
| 20260902005556 | 26 | 166 | 0.0 | 4.8 | 0.00 | 0.00 | 0.00 | 80 | 1016.4 |
| 20260902005055 | 27 | 115 | 0.0 | 4.8 | 0.00 | 0.00 | 0.00 | 79 | 1016.5 |
| 20260902004555 | 27 | 96 | 0.0 | 4.8 | 0.00 | 0.00 | 0.00 | 77 | 1016.5 |
| 20260902004059 | 27 | 164 | 0.0 | 8.0 | 0.00 | 0.00 | 0.00 | 76 | 1016.4 |
| 20260902003556 | 28 | 160 | 0.0 | 8.0 | 0.00 | 0.00 | 0.00 | 76 | 1016.4 |
| 20260902003100 | 28 | 184 | 0.0 | 3.2 | 0.00 | 0.00 | 0.00 | 74 | 1016.4 |
| 20260902002557 | 28 | 178 | 0.0 | 4.8 | 0.00 | 0.00 | 0.00 | 73 | 1016.5 |
| 20260902002054 | 28 | 157 | 0.0 | 4.8 | 0.00 | 0.00 | 0.00 | 73 | 1016.5 |
| 20260902001558 | 28 | 152 | 0.0 | 9.7 | 0.00 | 0.00 | 0.00 | 74 | 1016.4 |
| 20260902001054 | 29 | 47 | 0.0 | 9.7 | 0.00 | 0.00 | 0.00 | 71 | 1016.4 |
| 20260902000654 | 30 | 161 | 1.6 | 9.7 | 0.00 | 0.00 | 0.00 | 70 | 1016.4 |
| 20260902000056 | 30 | 171 | 0.0 | 4.8 | 0.00 | 0.00 | 0.00 | 67 | 1016.5 |
| 20260901235552 | 30 | 180 | 0.0 | 9.7 | 0.00 | 0.00 | 0.00 | 67 | 1016.5 |
| 20260901235051 | 30 | 248 | 1.6 | 12.9 | 0.00 | 0.00 | 0.00 | 70 | 1016.5 |
| 20260901234559 | 30 | 109 | 1.6 | 6.4 | 0.00 | 0.00 | 0.00 | 71 | 1016.5 |
| 20260901234051 | 30 | 53 | 1.6 | 9.7 | 0.00 | 0.00 | 0.00 | 70 | 1016.5 |
| 20260901233551 | 31 | 97 | 1.6 | 9.7 | 0.00 | 0.00 | 0.00 | 65 | 1016.5 |
| 20260901233051 | 31 | 221 | 3.2 | 14.5 | 0.00 | 0.00 | 0.00 | 64 | 1016.6 |
| 20260901232551 | 31 | 79 | 3.2 | 14.5 | 0.00 | 0.00 | 0.00 | 65 | 1016.5 |
| 20260901232051 | 31 | 164 | 3.2 | 12.9 | 0.00 | 0.00 | 0.00 | 63 | 1016.6 |
| 20260901231608 | 31 | 106 | 3.2 | 12.9 | 0.00 | 0.00 | 0.00 | 65 | 1016.8 |
| 20260901231050 | 31 | 57 | 1.6 | 12.9 | 0.00 | 0.00 | 0.00 | 64 | 1016.7 |
| 20260901230652 | 31 | 88 | 3.2 | 11.3 | 0.00 | 0.00 | 0.00 | 64 | 1016.8 |
| 20260901230106 | 31 | 117 | 1.6 | 8.0 | 0.00 | 0.00 | 0.00 | 65 | 1016.7 |
| 20260901225551 | 31 | 113 | 1.6 | 14.5 | 0.00 | 0.00 | 0.00 | 64 | 1016.8 |
| 20260901225049 | 31 | 103 | 3.2 | 14.5 | 0.00 | 0.00 | 0.00 | 62 | 1016.8 |
| 20260901224551 | 32 | 93 | 3.2 | 12.9 | 0.00 | 0.00 | 0.00 | 63 | 1016.8 |
| 20260901224048 | 32 | 37 | 4.8 | 12.9 | 0.00 | 0.00 | 0.00 | 62 | 1016.8 |
| 20260901223552 | 32 | 64 | 3.2 | 11.3 | 0.00 | 0.00 | 0.00 | 61 | 1016.7 |
| 20260901223050 | 32 | 65 | 1.6 | 17.7 | 0.00 | 0.00 | 0.00 | 62 | 1016.8 |
| 20260901222547 | 32 | 104 | 0.0 | 17.7 | 0.00 | 0.00 | 0.00 | 62 | 1016.8 |
| 20260901222047 | 32 | 43 | 3.2 | 17.7 | 0.00 | 0.00 | 0.00 | 62 | 1016.7 |
| 20260901221609 | 32 | 87 | 3.2 | 17.7 | 0.00 | 0.00 | 0.00 | 58 | 1016.7 |
| 20260901221048 | 33 | 130 | 6.4 | 17.7 | 0.00 | 0.00 | 0.00 | 57 | 1016.7 |
| 20260901220648 | 33 | 85 | 6.4 | 16.1 | 0.00 | 0.00 | 0.00 | 55 | 1016.7 |
| 20260901220049 | 33 | 131 | 8.0 | 14.5 | 0.00 | 0.00 | 0.00 | 54 | 1016.4 |
| 20260901215542 | 33 | 91 | 3.2 | 9.7 | 0.00 | 0.00 | 0.00 | 58 | 1016.4 |
| 20260901215041 | 33 | 117 | 3.2 | 14.5 | 0.00 | 0.00 | 0.00 | 57 | 1016.3 |
| 20260901214541 | 33 | 144 | 1.6 | 14.5 | 0.00 | 0.00 | 0.00 | 59 | 1016.3 |
| 20260901214041 | 33 | 12 | 3.2 | 11.3 | 0.00 | 0.00 | 0.00 | 54 | 1016.3 |
| 20260901213541 | 33 | 247 | 1.6 | 11.3 | 0.00 | 0.00 | 0.00 | 54 | 1016.3 |
| 20260901213059 | 33 | 116 | 3.2 | 12.9 | 0.00 | 0.00 | 0.00 | 54 | 1016.4 |
| 20260901212541 | 33 | 86 | 1.6 | 12.9 | 0.00 | 0.00 | 0.00 | 52 | 1016.4 |
| 20260901212041 | 33 | 96 | 4.8 | 11.3 | 0.00 | 0.00 | 0.00 | 52 | 1016.3 |
| 20260901211541 | 34 | 110 | 3.2 | 14.5 | 0.00 | 0.00 | 0.00 | 53 | 1016.4 |
| 20260901211039 | 35 | 92 | 6.4 | 14.5 | 0.00 | 0.00 | 0.00 | 47 | 1016.4 |
| 20260901210501 | 35 | 98 | 4.8 | 16.1 | 0.00 | 0.00 | 0.00 | 48 | 1016.4 |
| 20260901210118 | 35 | 96 | 6.4 | 16.1 | 0.00 | 0.00 | 0.00 | 48 | 1016.6 |
| 20260901210002 | 35 | 92 | 4.8 | 16.1 | 0.00 | 0.00 | 0.00 | 50 | 1016.4 |
| 20260901205603 | 35 | 122 | 3.2 | 12.9 | 0.00 | 0.00 | 0.00 | 50 | 1016.6 |
| 20260901205059 | 35 | 56 | 3.2 | 11.3 | 0.00 | 0.00 | 0.00 | 47 | 1016.6 |
| 20260901204609 | 35 | 130 | 4.8 | 12.9 | 0.00 | 0.00 | 0.00 | 48 | 1016.7 |
| 20260901204054 | 35 | 124 | 1.6 | 16.1 | 0.00 | 0.00 | 0.00 | 47 | 1016.7 |
| 20260901203558 | 35 | 47 | 6.4 | 16.1 | 0.00 | 0.00 | 0.00 | 47 | 1016.7 |
| 20260901203059 | 35 | 130 | 1.6 | 20.9 | 0.00 | 0.00 | 0.00 | 50 | 1016.8 |
| 20260901202553 | 35 | 104 | 4.8 | 20.9 | 0.00 | 0.00 | 0.00 | 46 | 1016.9 |
| 20260901202056 | 35 | 138 | 3.2 | 19.3 | 0.00 | 0.00 | 0.00 | 49 | 1016.8 |
| 20260901201557 | 36 | 61 | 8.0 | 19.3 | 0.00 | 0.00 | 0.00 | 47 | 1016.9 |
| 20260901201052 | 35 | 94 | 4.8 | 16.1 | 0.00 | 0.00 | 0.00 | 47 | 1016.9 |
| 20260901200651 | 35 | 45 | 4.8 | 16.1 | 0.00 | 0.00 | 0.00 | 45 | 1017.0 |
| 20260901200117 | 36 | 84 | 6.4 | 16.1 | 0.00 | 0.00 | 0.00 | 46 | 1017.1 |
| 20260901195557 | 36 | 52 | 6.4 | 16.1 | 0.00 | 0.00 | 0.00 | 44 | 1017.1 |
| 20260901195057 | 36 | 58 | 0.0 | 14.5 | 0.00 | 0.00 | 0.00 | 46 | 1017.2 |
| 20260901194608 | 35 | 87 | 4.8 | 16.1 | 0.00 | 0.00 | 0.00 | 45 | 1017.3 |
| 20260901194059 | 36 | 59 | 1.6 | 16.1 | 0.00 | 0.00 | 0.00 | 47 | 1017.3 |
| 20260901193553 | 36 | 360 | 1.6 | 8.0 | 0.00 | 0.00 | 0.00 | 44 | 1017.4 |
| 20260901193054 | 36 | 49 | 3.2 | 6.4 | 0.00 | 0.00 | 0.00 | 43 | 1017.5 |
| 20260901192557 | 35 | 196 | 0.0 | 8.0 | 0.00 | 0.00 | 0.00 | 45 | 1017.5 |
| 20260901192054 | 35 | 313 | 3.2 | 8.0 | 0.00 | 0.00 | 0.00 | 43 | 1017.6 |
| 20260901191628 | 36 | 196 | 0.0 | 6.4 | 0.00 | 0.00 | 0.00 | 42 | 1017.6 |
| 20260901191051 | 35 | 26 | 0.0 | 6.4 | 0.00 | 0.00 | 0.00 | 49 | 1017.6 |
| 20260901190648 | 35 | 38 | 1.6 | 6.4 | 0.00 | 0.00 | 0.00 | 51 | 1017.7 |
| 20260901190058 | 35 | 355 | 1.6 | 9.7 | 0.00 | 0.00 | 0.00 | 44 | 1017.7 |
| 20260901185549 | 35 | 147 | 1.6 | 9.7 | 0.00 | 0.00 | 0.00 | 47 | 1017.7 |
| 20260901185049 | 33 | 46 | 1.6 | 6.4 | 0.00 | 0.00 | 0.00 | 54 | 1017.8 |
| 20260901184549 | 33 | 32 | 1.6 | 4.8 | 0.00 | 0.00 | 0.00 | 51 | 1017.7 |
| 20260901184048 | 34 | 78 | 1.6 | 4.8 | 0.00 | 0.00 | 0.00 | 50 | 1017.8 |
| 20260901183551 | 35 | 31 | 0.0 | 4.8 | 0.00 | 0.00 | 0.00 | 43 | 1017.9 |
| 20260901183053 | 35 | 111 | 1.6 | 8.0 | 0.00 | 0.00 | 0.00 | 42 | 1017.9 |
| 20260901182546 | 36 | 5 | 1.6 | 16.1 | 0.00 | 0.00 | 0.00 | 41 | 1018.0 |
| 20260901182046 | 35 | 284 | 4.8 | 16.1 | 0.00 | 0.00 | 0.00 | 48 | 1018.1 |
| 20260901181552 | 34 | 311 | 4.8 | 11.3 | 0.00 | 0.00 | 0.00 | 47 | 1018.2 |
| 20260901181046 | 34 | 126 | 0.0 | 3.2 | 0.00 | 0.00 | 0.00 | 46 | 1018.3 |
| 20260901180645 | 35 | 131 | 0.0 | 12.9 | 0.00 | 0.00 | 0.00 | 47 | 1018.3 |
| 20260901180049 | 35 | 299 | 1.6 | 12.9 | 0.00 | 0.00 | 0.00 | 43 | 1018.3 |
| 20260901175549 | 35 | 321 | 3.2 | 12.9 | 0.00 | 0.00 | 0.00 | 43 | 1018.4 |
| 20260901175049 | 35 | 299 | 4.8 | 8.0 | 0.00 | 0.00 | 0.00 | 44 | 1018.5 |
| 20260901174547 | 34 | 236 | 1.6 | 6.4 | 0.00 | 0.00 | 0.00 | 45 | 1018.6 |
| 20260901174049 | 34 | 263 | 3.2 | 11.3 | 0.00 | 0.00 | 0.00 | 46 | 1018.7 |
| 20260901173549 | 34 | 259 | 1.6 | 11.3 | 0.00 | 0.00 | 0.00 | 48 | 1018.7 |
| 20260901173045 | 35 | 203 | 3.2 | 9.7 | 0.00 | 0.00 | 0.00 | 46 | 1018.8 |
| 20260901172547 | 35 | 162 | 3.2 | 9.7 | 0.00 | 0.00 | 0.00 | 45 | 1018.8 |
| 20260901172045 | 35 | 259 | 1.6 | 8.0 | 0.00 | 0.00 | 0.00 | 45 | 1018.9 |
| 20260901171547 | 35 | 151 | 3.2 | 8.0 | 0.00 | 0.00 | 0.00 | 46 | 1018.9 |
| 20260901171042 | 35 | 329 | 1.6 | 6.4 | 0.00 | 0.00 | 0.00 | 45 | 1019.0 |
| 20260901170506 | 35 | 101 | 0.0 | 12.9 | 0.00 | 0.00 | 0.00 | 53 | 1019.0 |
| 20260901170007 | 35 | 360 | 1.6 | 16.1 | 0.00 | 0.00 | 0.00 | 48 | 1019.1 |
| 20260901165504 | 35 | 310 | 8.0 | 16.1 | 0.00 | 0.00 | 0.00 | 47 | 1019.2 |
| 20260901165003 | 33 | 286 | 4.8 | 14.5 | 0.00 | 0.00 | 0.00 | 48 | 1019.3 |
| 20260901164503 | 34 | 275 | 4.8 | 16.1 | 0.00 | 0.00 | 0.00 | 46 | 1019.3 |
| 20260901164000 | 34 | 271 | 3.2 | 16.1 | 0.00 | 0.00 | 0.00 | 49 | 1019.3 |
| 20260901163559 | 34 | 292 | 4.8 | 16.1 | 0.00 | 0.00 | 0.00 | 47 | 1019.4 |
| 20260901163059 | 34 | 278 | 6.4 | 16.1 | 0.00 | 0.00 | 0.00 | 48 | 1019.3 |
| 20260901162557 | 34 | 313 | 4.8 | 14.5 | 0.00 | 0.00 | 0.00 | 49 | 1019.4 |
| 20260901162056 | 34 | 306 | 6.4 | 14.5 | 0.00 | 0.00 | 0.00 | 49 | 1019.4 |
| 20260901161556 | 34 | 323 | 6.4 | 16.1 | 0.00 | 0.00 | 0.00 | 50 | 1019.4 |
| 20260901161054 | 34 | 242 | 4.8 | 16.1 | 0.00 | 0.00 | 0.00 | 51 | 1019.5 |
| 20260901160512 | 34 | 303 | 4.8 | 12.9 | 0.00 | 0.00 | 0.00 | 53 | 1019.5 |
| 20260901160013 | 33 | 265 | 1.6 | 12.9 | 0.00 | 0.00 | 0.00 | 53 | 1019.5 |
| 20260901155510 | 33 | 329 | 3.2 | 9.7 | 0.00 | 0.00 | 0.00 | 54 | 1019.6 |
| 20260901155009 | 33 | 329 | 3.2 | 12.9 | 0.00 | 0.00 | 0.00 | 54 | 1019.5 |
| 20260901154511 | 33 | 11 | 3.2 | 12.9 | 0.00 | 0.00 | 0.00 | 55 | 1019.6 |
| 20260901154005 | 33 | 19 | 1.6 | 14.5 | 0.00 | 0.00 | 0.00 | 56 | 1019.6 |
| 20260901153507 | 32 | 314 | 4.8 | 12.9 | 0.00 | 0.00 | 0.00 | 56 | 1019.7 |
| 20260901153003 | 32 | 297 | 4.8 | 12.9 | 0.00 | 0.00 | 0.00 | 56 | 1019.7 |
| 20260901152501 | 32 | 249 | 4.8 | 12.9 | 0.00 | 0.00 | 0.00 | 57 | 1019.7 |
| 20260901152103 | 32 | 208 | 3.2 | 12.9 | 0.00 | 0.00 | 0.00 | 57 | 1019.7 |
| 20260901151600 | 32 | 246 | 4.8 | 19.3 | 0.00 | 0.00 | 0.00 | 57 | 1019.8 |
| 20260901151058 | 32 | 270 | 1.6 | 19.3 | 0.00 | 0.00 | 0.00 | 59 | 1019.8 |
| 20260901150557 | 32 | 257 | 1.6 | 9.7 | 0.00 | 0.00 | 0.00 | 59 | 1019.8 |
| 20260901150109 | 31 | 269 | 1.6 | 9.7 | 0.00 | 0.00 | 0.00 | 59 | 1019.8 |
| 20260901145557 | 31 | 217 | 1.6 | 12.9 | 0.00 | 0.00 | 0.00 | 62 | 1019.9 |
| 20260901145052 | 31 | 257 | 1.6 | 16.1 | 0.00 | 0.00 | 0.00 | 62 | 1019.9 |
| 20260901144552 | 31 | 320 | 4.8 | 16.1 | 0.00 | 0.00 | 0.00 | 63 | 1019.8 |
| 20260901144049 | 31 | 180 | 1.6 | 16.1 | 0.00 | 0.00 | 0.00 | 63 | 1019.9 |
| 20260901143547 | 31 | 282 | 3.2 | 16.1 | 0.00 | 0.00 | 0.00 | 64 | 1019.9 |
| 20260901143106 | 30 | 209 | 1.6 | 11.3 | 0.00 | 0.00 | 0.00 | 65 | 1020.0 |
| 20260901142544 | 30 | 205 | 1.6 | 11.3 | 0.00 | 0.00 | 0.00 | 66 | 1020.0 |
| 20260901142042 | 30 | 264 | 3.2 | 11.3 | 0.00 | 0.00 | 0.00 | 66 | 1019.9 |
| 20260901141541 | 30 | 176 | 6.4 | 14.5 | 0.00 | 0.00 | 0.00 | 67 | 1020.1 |
| 20260901141040 | 29 | 192 | 6.4 | 14.5 | 0.00 | 0.00 | 0.00 | 67 | 1020.0 |
| 20260901140508 | 29 | 194 | 3.2 | 14.5 | 0.00 | 0.00 | 0.00 | 68 | 1020.0 |
| 20260901140006 | 28 | 285 | 3.2 | 14.5 | 0.00 | 0.00 | 0.00 | 71 | 1020.1 |
| 20260901135505 | 28 | 182 | 1.6 | 9.7 | 0.00 | 0.00 | 0.00 | 73 | 1020.2 |
| 20260901135003 | 28 | 167 | 1.6 | 16.1 | 0.00 | 0.00 | 0.00 | 73 | 1020.3 |
| 20260901134502 | 27 | 198 | 4.8 | 16.1 | 0.00 | 0.00 | 0.00 | 73 | 1020.3 |
| 20260901134100 | 27 | 169 | 4.8 | 12.9 | 0.00 | 0.00 | 0.00 | 77 | 1020.3 |
| 20260901133559 | 26 | 194 | 4.8 | 12.9 | 0.00 | 0.00 | 0.00 | 79 | 1020.2 |
| 20260901133101 | 26 | 198 | 1.6 | 9.7 | 0.00 | 0.00 | 0.00 | 81 | 1020.3 |
| 20260901132602 | 24 | 228 | 1.6 | 8.0 | 0.00 | 0.00 | 0.00 | 86 | 1020.3 |
| 20260901132057 | 23 | 257 | 0.0 | 6.4 | 0.00 | 0.00 | 0.00 | 90 | 1020.2 |
| 20260901131558 | 22 | 235 | 0.0 | 6.4 | 0.00 | 0.00 | 0.00 | 91 | 1020.3 |
| 20260901131056 | 22 | 244 | 0.0 | 6.4 | 0.00 | 0.00 | 0.00 | 92 | 1020.3 |
| 20260901130656 | 22 | 166 | 1.6 | 6.4 | 0.00 | 0.00 | 0.00 | 92 | 1020.3 |
| 20260901130100 | 21 | 200 | 0.0 | 4.8 | 0.00 | 0.00 | 0.00 | 93 | 1020.3 |
| 20260901125558 | 21 | 170 | 0.0 | 0.0 | 0.00 | 0.00 | 0.00 | 93 | 1020.1 |
| 20260901125058 | 21 | 164 | 0.0 | 3.2 | 0.00 | 0.00 | 0.00 | 93 | 1020.3 |
| 20260901124601 | 20 | 151 | 0.0 | 3.2 | 0.00 | 0.00 | 0.00 | 94 | 1020.2 |
| 20260901124056 | 20 | 149 | 0.0 | 0.0 | 0.00 | 0.00 | 0.00 | 94 | 1020.2 |
| 20260901123600 | 20 | 149 | 0.0 | 1.6 | 0.00 | 0.00 | 0.00 | 94 | 1020.1 |
| 20260901123056 | 20 | 149 | 0.0 | 3.2 | 0.00 | 0.00 | 0.00 | 94 | 1019.9 |
| 20260901122555 | 20 | 144 | 0.0 | 3.2 | 0.00 | 0.00 | 0.00 | 94 | 1020.0 |
| 20260901122054 | 20 | 161 | 0.0 | 1.6 | 0.00 | 0.00 | 0.00 | 94 | 1019.9 |
| 20260901121602 | 20 | 117 | 0.0 | 1.6 | 0.00 | 0.00 | 0.00 | 94 | 1019.9 |
| 20260901121053 | 19 | 117 | 0.0 | 1.6 | 0.00 | 0.00 | 0.00 | 94 | 1019.8 |
| 20260901120652 | 19 | 117 | 0.0 | 1.6 | 0.00 | 0.00 | 0.00 | 94 | 1019.7 |
| 20260901120052 | 19 | 117 | 0.0 | 1.6 | 0.00 | 0.00 | 0.00 | 94 | 1019.8 |
| 20260901115551 | 19 | 117 | 0.0 | 1.6 | 0.00 | 0.00 | 0.00 | 94 | 1019.8 |
| 20260901115051 | 19 | 117 | 0.0 | 1.6 | 0.00 | 0.00 | 0.00 | 94 | 1019.7 |
| 20260901114551 | 19 | 117 | 0.0 | 0.0 | 0.00 | 0.00 | 0.00 | 94 | 1019.7 |
| 20260901114049 | 19 | 112 | 0.0 | 0.0 | 0.00 | 0.00 | 0.00 | 94 | 1019.6 |
| 20260901113549 | 19 | 112 | 0.0 | 0.0 | 0.00 | 0.00 | 0.00 | 94 | 1019.4 |
| 20260901113049 | 19 | 112 | 0.0 | 0.0 | 0.00 | 0.00 | 0.00 | 94 | 1019.4 |
| 20260901112548 | 20 | 112 | 0.0 | 0.0 | 0.00 | 0.00 | 0.00 | 94 | 1019.4 |
| 20260901112048 | 20 | 112 | 0.0 | 0.0 | 0.00 | 0.00 | 0.00 | 94 | 1019.3 |
| 20260901111547 | 20 | 112 | 0.0 | 0.0 | 0.00 | 0.00 | 0.00 | 94 | 1019.4 |
| 20260901111046 | 20 | 112 | 0.0 | 0.0 | 0.00 | 0.00 | 0.00 | 94 | 1019.4 |
| 20260901110646 | 20 | 112 | 0.0 | 0.0 | 0.00 | 0.00 | 0.00 | 94 | 1019.4 |
| 20260901110051 | 20 | 112 | 0.0 | 0.0 | 0.00 | 0.00 | 0.00 | 93 | 1019.3 |
| 20260901105553 | 20 | 112 | 0.0 | 0.0 | 0.00 | 0.00 | 0.00 | 93 | 1019.2 |
| 20260901105053 | 20 | 112 | 0.0 | 0.0 | 0.00 | 0.00 | 0.00 | 93 | 1019.2 |
| 20260901104550 | 20 | 112 | 0.0 | 1.6 | 0.00 | 0.00 | 0.00 | 93 | 1019.1 |
| 20260901104048 | 20 | 112 | 0.0 | 1.6 | 0.00 | 0.00 | 0.00 | 93 | 1019.2 |
| 20260901103548 | 20 | 112 | 0.0 | 3.2 | 0.00 | 0.00 | 0.00 | 93 | 1019.1 |
| 20260901103047 | 20 | 112 | 0.0 | 3.2 | 0.00 | 0.00 | 0.00 | 93 | 1019.0 |
| 20260901102546 | 20 | 148 | 0.0 | 1.6 | 0.00 | 0.00 | 0.00 | 92 | 1019.0 |
| 20260901102046 | 20 | 147 | 0.0 | 1.6 | 0.00 | 0.00 | 0.00 | 92 | 1019.0 |
| 20260901101600 | 20 | 148 | 0.0 | 3.2 | 0.00 | 0.00 | 0.00 | 92 | 1018.9 |
| 20260901101043 | 20 | 148 | 0.0 | 3.2 | 0.00 | 0.00 | 0.00 | 92 | 1018.9 |
| 20260901100643 | 20 | 133 | 0.0 | 1.6 | 0.00 | 0.00 | 0.00 | 92 | 1018.9 |
| 20260901100100 | 20 | 127 | 0.0 | 1.6 | 0.00 | 0.00 | 0.00 | 92 | 1018.8 |
| 20260901095558 | 20 | 127 | 0.0 | 1.6 | 0.00 | 0.00 | 0.00 | 92 | 1018.8 |
| 20260901095059 | 20 | 127 | 0.0 | 1.6 | 0.00 | 0.00 | 0.00 | 92 | 1018.7 |
| 20260901094558 | 20 | 127 | 0.0 | 3.2 | 0.00 | 0.00 | 0.00 | 92 | 1018.8 |
| 20260901094058 | 20 | 127 | 0.0 | 3.2 | 0.00 | 0.00 | 0.00 | 92 | 1018.8 |
| 20260901093556 | 20 | 144 | 0.0 | 3.2 | 0.00 | 0.00 | 0.00 | 92 | 1018.6 |
| 20260901093106 | 20 | 132 | 0.0 | 3.2 | 0.00 | 0.00 | 0.00 | 91 | 1018.7 |
| 20260901092555 | 20 | 132 | 0.0 | 3.2 | 0.00 | 0.00 | 0.00 | 91 | 1018.6 |
| 20260901092056 | 20 | 136 | 0.0 | 1.6 | 0.00 | 0.00 | 0.00 | 92 | 1018.5 |
| 20260901091558 | 20 | 116 | 0.0 | 1.6 | 0.00 | 0.00 | 0.00 | 91 | 1018.5 |
| 20260901091055 | 21 | 116 | 0.0 | 3.2 | 0.00 | 0.00 | 0.00 | 91 | 1018.5 |
| 20260901090655 | 21 | 117 | 0.0 | 3.2 | 0.00 | 0.00 | 0.00 | 91 | 1018.5 |
| 20260901090058 | 21 | 120 | 0.0 | 1.6 | 0.00 | 0.00 | 0.00 | 91 | 1018.4 |
| 20260901085557 | 21 | 144 | 0.0 | 1.6 | 0.00 | 0.00 | 0.00 | 91 | 1018.4 |
| 20260901085100 | 21 | 160 | 0.0 | 1.6 | 0.00 | 0.00 | 0.00 | 91 | 1018.4 |
| 20260901084557 | 21 | 169 | 0.0 | 1.6 | 0.00 | 0.00 | 0.00 | 91 | 1018.4 |
| 20260901084056 | 21 | 157 | 0.0 | 1.6 | 0.00 | 0.00 | 0.00 | 91 | 1018.3 |
| 20260901083556 | 21 | 157 | 0.0 | 1.6 | 0.00 | 0.00 | 0.00 | 91 | 1018.4 |
| 20260901083056 | 21 | 140 | 0.0 | 1.6 | 0.00 | 0.00 | 0.00 | 91 | 1018.4 |
| 20260901082555 | 21 | 140 | 0.0 | 1.6 | 0.00 | 0.00 | 0.00 | 91 | 1018.4 |
| 20260901082056 | 21 | 132 | 0.0 | 1.6 | 0.00 | 0.00 | 0.00 | 91 | 1018.4 |
| 20260901081600 | 21 | 142 | 0.0 | 1.6 | 0.00 | 0.00 | 0.00 | 91 | 1018.3 |
| 20260901081054 | 21 | 137 | 0.0 | 1.6 | 0.00 | 0.00 | 0.00 | 91 | 1018.3 |
| 20260901080654 | 21 | 133 | 0.0 | 1.6 | 0.00 | 0.00 | 0.00 | 91 | 1018.2 |
| 20260901080145 | 21 | 127 | 0.0 | 1.6 | 0.00 | 0.00 | 0.00 | 91 | 1018.0 |
| 20260901075556 | 21 | 142 | 0.0 | 3.2 | 0.00 | 0.00 | 0.00 | 91 | 1018.1 |
| 20260901075054 | 21 | 154 | 0.0 | 3.2 | 0.00 | 0.00 | 0.00 | 90 | 1018.1 |
| 20260901074553 | 21 | 128 | 0.0 | 3.2 | 0.00 | 0.00 | 0.00 | 90 | 1018.2 |
| 20260901074054 | 21 | 139 | 0.0 | 3.2 | 0.00 | 0.00 | 0.00 | 90 | 1018.1 |
| 20260901073553 | 21 | 142 | 0.0 | 3.2 | 0.00 | 0.00 | 0.00 | 90 | 1018.2 |
| 20260901073053 | 21 | 138 | 0.0 | 3.2 | 0.00 | 0.00 | 0.00 | 89 | 1018.1 |
| 20260901072552 | 21 | 123 | 0.0 | 3.2 | 0.00 | 0.00 | 0.00 | 89 | 1018.1 |
| 20260901072056 | 21 | 153 | 0.0 | 1.6 | 0.00 | 0.00 | 0.00 | 89 | 1018.1 |
| 20260901071551 | 21 | 159 | 0.0 | 1.6 | 0.00 | 0.00 | 0.00 | 89 | 1018.1 |
| 20260901071049 | 21 | 182 | 0.0 | 1.6 | 0.00 | 0.00 | 0.00 | 89 | 1018.1 |
| 20260901070651 | 21 | 182 | 0.0 | 1.6 | 0.00 | 0.00 | 0.00 | 88 | 1018.0 |
| 20260901070114 | 21 | 132 | 0.0 | 1.6 | 0.00 | 0.00 | 0.00 | 88 | 1018.1 |
| 20260901065555 | 21 | 132 | 0.0 | 3.2 | 0.00 | 0.00 | 0.00 | 89 | 1018.0 |
| 20260901065054 | 21 | 132 | 0.0 | 3.2 | 0.00 | 0.00 | 0.00 | 89 | 1018.0 |
| 20260901064605 | 22 | 138 | 0.0 | 1.6 | 0.00 | 0.00 | 0.00 | 89 | 1018.1 |
| 20260901064052 | 22 | 209 | 0.0 | 0.0 | 0.00 | 0.00 | 0.00 | 88 | 1018.2 |
| 20260901063551 | 22 | 209 | 0.0 | 0.0 | 0.00 | 0.00 | 0.00 | 88 | 1018.2 |
| 20260901063059 | 22 | 209 | 0.0 | 0.0 | 0.00 | 0.00 | 0.00 | 87 | 1018.2 |
| 20260901062550 | 22 | 209 | 0.0 | 1.6 | 0.00 | 0.00 | 0.00 | 87 | 1018.2 |
| 20260901062049 | 22 | 209 | 0.0 | 3.2 | 0.00 | 0.00 | 0.00 | 87 | 1018.2 |
| 20260901061601 | 22 | 209 | 0.0 | 4.8 | 0.00 | 0.00 | 0.00 | 87 | 1018.2 |
| 20260901061048 | 22 | 148 | 0.0 | 4.8 | 0.00 | 0.00 | 0.00 | 86 | 1018.1 |
| 20260901060647 | 22 | 132 | 1.6 | 4.8 | 0.00 | 0.00 | 0.00 | 86 | 1018.1 |
| 20260901060051 | 22 | 111 | 0.0 | 6.4 | 0.00 | 0.00 | 0.00 | 86 | 1018.1 |
| 20260901055550 | 23 | 176 | 1.6 | 6.4 | 0.00 | 0.00 | 0.00 | 85 | 1018.1 |
| 20260901055049 | 23 | 123 | 0.0 | 4.8 | 0.00 | 0.00 | 0.00 | 84 | 1018.1 |
| 20260901054551 | 23 | 188 | 0.0 | 4.8 | 0.00 | 0.00 | 0.00 | 83 | 1018.1 |
| 20260901054049 | 23 | 180 | 0.0 | 6.4 | 0.00 | 0.00 | 0.00 | 83 | 1018.1 |
| 20260901053548 | 23 | 121 | 1.6 | 8.0 | 0.00 | 0.00 | 0.00 | 82 | 1018.1 |
| 20260901053049 | 23 | 231 | 1.6 | 8.0 | 0.00 | 0.00 | 0.00 | 82 | 1018.1 |
| 20260901052546 | 23 | 147 | 3.2 | 9.7 | 0.00 | 0.00 | 0.00 | 82 | 1018.1 |
| 20260901052044 | 23 | 117 | 3.2 | 11.3 | 0.00 | 0.00 | 0.00 | 82 | 1018.1 |
| 20260901051543 | 24 | 165 | 1.6 | 14.5 | 0.00 | 0.00 | 0.00 | 80 | 1018.0 |
| 20260901051043 | 24 | 173 | 3.2 | 14.5 | 0.00 | 0.00 | 0.00 | 80 | 1018.0 |
| 20260901050645 | 24 | 142 | 3.2 | 8.0 | 0.00 | 0.00 | 0.00 | 80 | 1017.9 |
| 20260901050041 | 24 | 125 | 3.2 | 9.7 | 0.00 | 0.00 | 0.00 | 81 | 1017.9 |
| 20260901045541 | 25 | 155 | 1.6 | 11.3 | 0.00 | 0.00 | 0.00 | 79 | 1018.1 |
| 20260901045040 | 25 | 197 | 1.6 | 11.3 | 0.00 | 0.00 | 0.00 | 79 | 1018.1 |
| 20260901044557 | 25 | 117 | 3.2 | 11.3 | 0.00 | 0.00 | 0.00 | 79 | 1018.1 |
| 20260901044040 | 25 | 169 | 1.6 | 11.3 | 0.00 | 0.00 | 0.00 | 78 | 1018.1 |
| 20260901043540 | 25 | 184 | 3.2 | 11.3 | 0.00 | 0.00 | 0.00 | 77 | 1018.1 |
| 20260901043041 | 25 | 149 | 4.8 | 11.3 | 0.00 | 0.00 | 0.00 | 76 | 1018.0 |
| 20260901042539 | 25 | 156 | 3.2 | 11.3 | 0.00 | 0.00 | 0.00 | 76 | 1018.1 |
| 20260901042040 | 25 | 144 | 3.2 | 11.3 | 0.00 | 0.00 | 0.00 | 77 | 1018.0 |
| 20260901041539 | 25 | 157 | 3.2 | 11.3 | 0.00 | 0.00 | 0.00 | 78 | 1018.1 |
| 20260901041039 | 25 | 146 | 1.6 | 11.3 | 0.00 | 0.00 | 0.00 | 77 | 1018.0 |
| 20260901040639 | 25 | 173 | 3.2 | 11.3 | 0.00 | 0.00 | 0.00 | 77 | 1018.0 |
| 20260901040104 | 25 | 184 | 1.6 | 8.0 | 0.00 | 0.00 | 0.00 | 77 | 1017.9 |
| 20260901035602 | 25 | 146 | 3.2 | 9.7 | 0.00 | 0.00 | 0.00 | 77 | 1018.0 |
| 20260901035102 | 25 | 173 | 3.2 | 9.7 | 0.00 | 0.00 | 0.00 | 78 | 1018.0 |
| 20260901034558 | 25 | 141 | 1.6 | 4.8 | 0.00 | 0.00 | 0.00 | 79 | 1018.1 |
| 20260901034058 | 25 | 161 | 0.0 | 4.8 | 0.00 | 0.00 | 0.00 | 79 | 1018.1 |
| 20260901033558 | 25 | 170 | 1.6 | 6.4 | 0.00 | 0.00 | 0.00 | 79 | 1018.0 |
| 20260901033058 | 25 | 153 | 1.6 | 11.3 | 0.00 | 0.00 | 0.00 | 79 | 1018.0 |
| 20260901032600 | 25 | 171 | 3.2 | 11.3 | 0.00 | 0.00 | 0.00 | 80 | 1018.0 |
| 20260901032058 | 24 | 168 | 1.6 | 8.0 | 0.00 | 0.00 | 0.00 | 81 | 1018.0 |
| 20260901031559 | 23 | 196 | 1.6 | 11.3 | 0.00 | 0.00 | 0.00 | 82 | 1017.9 |
| 20260901031056 | 23 | 200 | 3.2 | 11.3 | 0.00 | 0.00 | 0.00 | 84 | 1018.0 |
| 20260901030656 | 23 | 160 | 1.6 | 8.0 | 0.00 | 0.00 | 0.00 | 85 | 1017.9 |
| 20260901030054 | 23 | 138 | 1.6 | 8.0 | 0.00 | 0.00 | 0.00 | 86 | 1017.9 |
| 20260901025554 | 22 | 202 | 1.6 | 8.0 | 0.00 | 0.00 | 0.00 | 86 | 1017.9 |
| 20260901025054 | 22 | 193 | 1.6 | 9.7 | 0.00 | 0.00 | 0.00 | 86 | 1017.9 |
| 20260901024601 | 22 | 161 | 1.6 | 4.8 | 0.00 | 0.00 | 0.00 | 86 | 1017.9 |
| 20260901024053 | 22 | 165 | 0.0 | 3.2 | 0.00 | 0.00 | 0.00 | 85 | 1017.8 |
| 20260901023553 | 23 | 175 | 0.0 | 3.2 | 0.00 | 0.00 | 0.00 | 85 | 1017.8 |
| 20260901023054 | 23 | 167 | 0.0 | 1.6 | 0.00 | 0.00 | 0.00 | 83 | 1017.8 |
| 20260901022553 | 23 | 159 | 0.0 | 1.6 | 0.00 | 0.00 | 0.00 | 82 | 1017.8 |
| 20260901022053 | 23 | 159 | 0.0 | 0.0 | 0.00 | 0.00 | 0.00 | 81 | 1017.7 |
| 20260901021608 | 23 | 159 | 0.0 | 0.0 | 0.00 | 0.00 | 0.00 | 80 | 1017.7 |
| 20260901021055 | 23 | 159 | 0.0 | 0.0 | 0.00 | 0.00 | 0.00 | 79 | 1017.6 |
| 20260901020653 | 24 | 159 | 0.0 | 1.6 | 0.00 | 0.00 | 0.00 | 79 | 1017.5 |
| 20260901020052 | 24 | 159 | 0.0 | 1.6 | 0.00 | 0.00 | 0.00 | 79 | 1017.5 |
| 20260901015552 | 24 | 159 | 0.0 | 1.6 | 0.00 | 0.00 | 0.00 | 79 | 1017.4 |
| 20260901015051 | 24 | 159 | 0.0 | 0.0 | 0.00 | 0.00 | 0.00 | 79 | 1017.4 |